| time (UTC) | temp F | wind direction | speed knots | gust knots | rain 1hr in | rain 24hr in | rain mn in | humidity % | barometer mb |
| 20260507100041 | 46 | 45 | 2.6 | 7.0 | 0.00 | 0.01 | 0.01 | 89 | 1011.9 |
| 20260507094539 | 46 | 59 | 4.3 | 7.8 | 0.00 | 0.01 | 0.01 | 88 | 1011.8 |
| 20260507093037 | 46 | 86 | 3.5 | 8.7 | 0.00 | 0.01 | 0.01 | 89 | 1011.7 |
| 20260507091534 | 46 | 57 | 3.5 | 8.7 | 0.01 | 0.01 | 0.01 | 89 | 1011.4 |
| 20260507090037 | 46 | 42 | 5.2 | 8.7 | 0.01 | 0.01 | 0.01 | 90 | 1011.3 |
| 20260507084529 | 46 | 64 | 5.2 | 10.4 | 0.01 | 0.01 | 0.01 | 90 | 1011.0 |
| 20260507083028 | 46 | 28 | 2.6 | 6.1 | 0.01 | 0.01 | 0.01 | 90 | 1010.9 |
| 20260507081539 | 46 | 57 | 3.5 | 7.8 | 0.00 | 0.00 | 0.00 | 90 | 1010.6 |
| 20260507080024 | 45 | 78 | 5.2 | 10.4 | 0.00 | 0.00 | 0.00 | 91 | 1010.5 |
| 20260507074544 | 45 | 26 | 6.1 | 10.4 | 0.00 | 0.01 | 0.00 | 91 | 1010.3 |
| 20260507073021 | 45 | 51 | 3.5 | 8.7 | 0.00 | 0.01 | 0.00 | 91 | 1010.2 |
| 20260507071519 | 45 | 81 | 2.6 | 7.8 | 0.00 | 0.01 | 0.00 | 90 | 1010.1 |
| 20260507070021 | 45 | 44 | 2.6 | 7.8 | 0.00 | 0.01 | 0.00 | 90 | 1010.0 |
| 20260507064517 | 45 | 61 | 5.2 | 9.6 | 0.00 | 0.02 | 0.00 | 90 | 1009.9 |
| 20260507063022 | 45 | 25 | 2.6 | 7.8 | 0.00 | 0.02 | 0.00 | 90 | 1009.8 |
| 20260507061514 | 45 | 360 | 3.5 | 7.0 | 0.00 | 0.02 | 0.00 | 90 | 1009.6 |
| 20260507060010 | 45 | 49 | 1.7 | 7.8 | 0.00 | 0.02 | 0.00 | 90 | 1009.3 |
| 20260507054512 | 45 | 54 | 3.5 | 6.1 | 0.00 | 0.06 | 0.00 | 90 | 1009.2 |
| 20260507053008 | 45 | 44 | 3.5 | 8.7 | 0.00 | 0.06 | 0.00 | 90 | 1009.1 |
| 20260507051508 | 44 | 72 | 4.3 | 8.7 | 0.00 | 0.06 | 0.00 | 90 | 1009.0 |
| 20260507050017 | 44 | 76 | 6.1 | 9.6 | 0.00 | 0.06 | 0.00 | 90 | 1009.0 |
| 20260507044502 | 44 | 59 | 4.3 | 7.8 | 0.00 | 0.19 | 0.00 | 90 | 1008.8 |
| 20260507043002 | 44 | 62 | 3.5 | 7.8 | 0.00 | 0.19 | 0.00 | 90 | 1008.6 |
| 20260507041604 | 44 | 23 | 4.3 | 10.4 | 0.00 | 0.19 | 0.00 | 90 | 1008.6 |
| 20260507040056 | 44 | 78 | 2.6 | 7.8 | 0.00 | 0.19 | 0.00 | 90 | 1008.5 |
| 20260507034600 | 44 | 49 | 2.6 | 9.6 | 0.00 | 0.26 | 0.00 | 90 | 1008.4 |
| 20260507033100 | 44 | 55 | 3.5 | 7.8 | 0.00 | 0.26 | 0.00 | 90 | 1008.4 |
| 20260507031605 | 45 | 42 | 3.5 | 8.7 | 0.00 | 0.26 | 0.00 | 90 | 1008.2 |
| 20260507030055 | 45 | 69 | 4.3 | 7.8 | 0.00 | 0.26 | 0.00 | 90 | 1008.0 |
| 20260507024548 | 45 | 66 | 4.3 | 8.7 | 0.00 | 0.33 | 0.00 | 90 | 1007.8 |
| 20260507023051 | 45 | 63 | 4.3 | 11.3 | 0.00 | 0.33 | 0.00 | 91 | 1007.8 |
| 20260507021545 | 45 | 46 | 4.3 | 8.7 | 0.00 | 0.33 | 0.00 | 91 | 1007.8 |
| 20260507020047 | 45 | 50 | 4.3 | 12.2 | 0.00 | 0.33 | 0.00 | 92 | 1007.7 |
| 20260507014549 | 45 | 9 | 3.5 | 11.3 | 0.00 | 0.40 | 0.00 | 92 | 1007.7 |
| 20260507013039 | 45 | 5 | 4.3 | 8.7 | 0.00 | 0.40 | 0.00 | 91 | 1007.5 |
| 20260507011538 | 46 | 44 | 6.1 | 10.4 | 0.00 | 0.40 | 0.00 | 90 | 1007.3 |
| 20260507010035 | 47 | 46 | 6.1 | 11.3 | 0.00 | 0.40 | 0.00 | 89 | 1007.2 |
| 20260507004528 | 48 | 59 | 5.2 | 13.0 | 0.00 | 0.56 | 0.00 | 89 | 1007.1 |
| 20260507003025 | 49 | 57 | 3.5 | 10.4 | 0.00 | 0.56 | 0.00 | 88 | 1006.8 |
| 20260507001526 | 49 | 46 | 6.1 | 11.3 | 0.00 | 0.56 | 0.00 | 87 | 1006.6 |
| 20260507000031 | 50 | 46 | 6.1 | 11.3 | 0.00 | 0.56 | 0.00 | 87 | 1006.6 |
| 20260506234516 | 50 | 61 | 3.5 | 6.1 | 0.00 | 0.66 | 0.00 | 87 | 1006.5 |
| 20260506233017 | 50 | 64 | 3.5 | 7.0 | 0.00 | 0.66 | 0.00 | 87 | 1006.6 |
| 20260506231517 | 50 | 51 | 3.5 | 7.8 | 0.00 | 0.66 | 0.00 | 88 | 1006.7 |
| 20260506230001 | 50 | 5 | 3.5 | 8.7 | 0.00 | 0.66 | 0.00 | 88 | 1006.4 |
| 20260506224602 | 50 | 45 | 2.6 | 5.2 | 0.00 | 0.70 | 0.00 | 88 | 1006.4 |
| 20260506223104 | 50 | 51 | 1.7 | 5.2 | 0.00 | 0.70 | 0.00 | 87 | 1006.5 |
| 20260506221559 | 50 | 65 | 2.6 | 5.2 | 0.00 | 0.70 | 0.00 | 87 | 1006.4 |
| 20260506220054 | 50 | 49 | 2.6 | 6.1 | 0.00 | 0.70 | 0.00 | 87 | 1006.3 |
| 20260506214554 | 50 | 49 | 1.7 | 5.2 | 0.00 | 0.70 | 0.70 | 87 | 1006.3 |
| 20260506213110 | 51 | 65 | 2.6 | 7.8 | 0.00 | 0.70 | 0.70 | 86 | 1006.3 |
| 20260506211551 | 51 | 39 | 2.6 | 10.4 | 0.00 | 0.70 | 0.70 | 86 | 1006.1 |
| 20260506210050 | 51 | 38 | 3.5 | 9.6 | 0.00 | 0.70 | 0.70 | 86 | 1006.2 |
| 20260506204551 | 51 | 45 | 7.0 | 10.4 | 0.00 | 0.70 | 0.70 | 86 | 1006.0 |
| 20260506203044 | 51 | 32 | 3.5 | 8.7 | 0.00 | 0.70 | 0.70 | 87 | 1006.0 |
| 20260506201542 | 52 | 61 | 2.6 | 10.4 | 0.00 | 0.70 | 0.70 | 87 | 1005.9 |
| 20260506200038 | 52 | 42 | 4.3 | 9.6 | 0.00 | 0.70 | 0.70 | 88 | 1005.9 |
| 20260506194538 | 52 | 39 | 3.5 | 9.6 | 0.00 | 0.71 | 0.70 | 88 | 1005.6 |
| 20260506193035 | 53 | 47 | 3.5 | 8.7 | 0.00 | 0.71 | 0.70 | 88 | 1005.5 |
| 20260506191534 | 53 | 36 | 4.3 | 7.8 | 0.00 | 0.71 | 0.70 | 87 | 1005.4 |
| 20260506190017 | 53 | 69 | 4.3 | 9.6 | 0.00 | 0.71 | 0.70 | 87 | 1005.1 |
| 20260506184516 | 53 | 70 | 3.5 | 7.0 | 0.00 | 0.71 | 0.70 | 88 | 1004.9 |
| 20260506183016 | 53 | 5 | 3.5 | 9.6 | 0.00 | 0.71 | 0.70 | 88 | 1004.9 |
| 20260506181514 | 54 | 46 | 2.6 | 7.8 | 0.00 | 0.71 | 0.70 | 88 | 1004.9 |
| 20260506180014 | 54 | 22 | 4.3 | 7.8 | 0.00 | 0.71 | 0.70 | 88 | 1004.6 |
| 20260506174513 | 54 | 360 | 2.6 | 7.8 | 0.00 | 0.71 | 0.70 | 88 | 1004.5 |
| 20260506173013 | 54 | 38 | 1.7 | 5.2 | 0.00 | 0.71 | 0.70 | 88 | 1004.5 |
| 20260506171512 | 54 | 38 | 3.5 | 8.7 | 0.00 | 0.71 | 0.70 | 87 | 1004.4 |
| 20260506170011 | 55 | 67 | 2.6 | 7.8 | 0.00 | 0.71 | 0.70 | 87 | 1004.3 |
| 20260506164510 | 55 | 77 | 4.3 | 9.6 | 0.00 | 0.71 | 0.70 | 87 | 1004.3 |
| 20260506163021 | 55 | 63 | 4.3 | 9.6 | 0.00 | 0.71 | 0.70 | 87 | 1004.3 |
| 20260506161509 | 55 | 50 | 3.5 | 7.8 | 0.00 | 0.71 | 0.70 | 87 | 1004.2 |
| 20260506160016 | 55 | 5 | 4.3 | 7.8 | 0.00 | 0.71 | 0.70 | 86 | 1004.4 |
| 20260506154508 | 55 | 61 | 2.6 | 8.7 | 0.00 | 0.71 | 0.70 | 85 | 1004.4 |
| 20260506153007 | 55 | 53 | 4.3 | 9.6 | 0.00 | 0.71 | 0.70 | 85 | 1004.4 |
| 20260506151507 | 55 | 15 | 4.3 | 9.6 | 0.00 | 0.71 | 0.70 | 86 | 1004.5 |
| 20260506150005 | 56 | 76 | 3.5 | 8.7 | 0.00 | 0.71 | 0.70 | 86 | 1004.6 |
| 20260506144504 | 56 | 355 | 3.5 | 7.8 | 0.00 | 0.71 | 0.70 | 86 | 1004.5 |
| 20260506143003 | 56 | 5 | 2.6 | 7.8 | 0.00 | 0.71 | 0.70 | 87 | 1004.5 |
| 20260506141503 | 55 | 71 | 3.5 | 7.8 | 0.00 | 0.71 | 0.70 | 87 | 1004.4 |
| 20260506140001 | 56 | 62 | 2.6 | 9.6 | 0.00 | 0.71 | 0.70 | 87 | 1004.5 |
| 20260506134501 | 55 | 313 | 3.5 | 5.2 | 0.00 | 0.71 | 0.70 | 86 | 1004.5 |
| 20260506133001 | 55 | 15 | 2.6 | 6.1 | 0.00 | 0.71 | 0.70 | 87 | 1004.5 |
| 20260506131604 | 55 | 318 | 2.6 | 7.0 | 0.00 | 0.71 | 0.70 | 89 | 1004.5 |
| 20260506124559 | 55 | 349 | 3.5 | 7.8 | 0.00 | 0.71 | 0.70 | 88 | 1004.4 |
| 20260506123058 | 55 | 26 | 2.6 | 8.7 | 0.00 | 0.71 | 0.70 | 89 | 1004.3 |
| 20260506121559 | 55 | 333 | 4.3 | 7.8 | 0.00 | 0.71 | 0.70 | 90 | 1004.4 |
| 20260506120100 | 55 | 336 | 1.7 | 5.2 | 0.00 | 0.71 | 0.70 | 90 | 1004.3 |
| 20260506114605 | 54 | 5 | 1.7 | 4.3 | 0.00 | 0.71 | 0.70 | 90 | 1004.4 |
| 20260506113056 | 54 | 348 | 1.7 | 5.2 | 0.00 | 0.71 | 0.70 | 90 | 1004.3 |
| 20260506111555 | 54 | 344 | 1.7 | 3.5 | 0.00 | 0.71 | 0.70 | 91 | 1004.2 |
| 20260506104554 | 54 | 345 | 2.6 | 7.8 | 0.00 | 0.71 | 0.70 | 91 | 1003.9 |
| 20260506103054 | 54 | 326 | 1.7 | 7.0 | 0.00 | 0.71 | 0.70 | 92 | 1003.8 |
| 20260506101603 | 54 | 22 | 2.6 | 7.0 | 0.00 | 0.71 | 0.70 | 93 | 1003.5 |